STARLINK-34688 (65875 NORAD) Tracking and Keplerian Element Data

This shows tracking and keplerian element data for the satellite.

Feedback or suggestion? Click here.




ElementValue
Catalog65875
NameSTARLINK-34688
Epoch Orbit1202
Epoch Day354.15856019
Epoch Year2025
RAAN303.9723
Inclination53.1602
Eccentricity0.00013
Argument of Perigee83.4266
Mean Anonmoly276.6883
Mean Motion15.30189986
Decay Rate5.964E-05
L11 65875U 25223X 25354.15856019 .00005964 00000+0 21340-3 0 9995
L22 65875 53.1602 303.9723 0001300 83.4266 276.6883 15.30189986 12025



Live tracking and technical data element details for STARLINK-34688 (NORAD 65875). STARLINK-34688 can be tracked NOW for your location showing map with azimuth and elevation plus other details from your city location.







IsCatalogInMostPopularTable: catalog: 65875, numindb: 7
Update: records affected: 1



GetName: 65875 STARLINK-34688

Hit Count: updated at: Tue, 21 Apr 2026 20:42:07 GMT